sat.trackr.live / text

‹ back to catalog

AMAZONAS 3

NORAD 39078 · 2013-006A

PAYLOAD ACTIVE UNKNOWN

§ Identity

Operator
Country
SPN
Launch date
2013-02-07
Launch site
FRGUI
Launch vehicle
Mass (kg)
RCS (m²)
318.74

Purposes: comms

External: N2YO · Heavens-Above · Gunter

§ Orbital elements

Epoch: 2026-09-15T11:45:03.244032Z

Period
1,436.12 min
Inclination
0.0214°
Eccentricity
0.0005142
Mean motion
1.00270410 rev/d
Perigee alt
35,765.3 km
Apogee alt
35,808.7 km
Semi-major
42,165.1 km
B*
0.0000e+0
RAAN
196.5829°
Arg perigee
359.3682°
Mean anomaly
273.7673°
Rev number
4,583

§ Raw data

AMAZONAS 31 39078U 13006A   26258.48962088 -.00000288  00000+0  00000+0 0  99922 39078   0.0214 196.5829 0005142 359.3682 273.7673  1.00270410 45834

JSON: /api/v1/satellites/39078 · /tle

For live sub-satellite position, see the globe view (requires WebGL).

§ Visibility from observer

Set your observer location to see the next 7 days of passes ≥ 10°. The values pass through the URL so the page stays shareable.

No JS? Fill the form by hand. The geolocation button needs JavaScript.